Skip Page Navigation
NASA JPL Caltech
NASA Logo - Jet Propulsion Laboratory + View the NASA Portal
+ Near-Earth Object (NEO) Program
Search JPL
JPL Home Earth Solar System Stars & Galaxies Technology
JPL Solar System Dynamics
BODIES ORBITS EPHEMERIDES TOOLS PHYSICAL DATA DISCOVERY FAQ SITE MAP
JPL Small-Body Database Browser
Search: [ help ]  
27512 Gilstrap (2000 GC167)
Classification: Main-belt Asteroid          SPK-ID: 2027512
Ephemeris | Orbit Diagram | Orbital Elements | Physical Parameters | Discovery Circumstances | Close-Approach Data ]

[ show orbit diagram ]
Orbital Elements at Epoch 2457600.5 (2016-Jul-31.0) TDB
Reference: JPL 13 (heliocentric ecliptic J2000)
 Element Value Uncertainty (1-sigma)   Units 
e .06521635498523957 5.2558e-08  
a 2.21034947800781 1.3446e-08 au
q 2.066198541808614 1.1978e-07 au
i 6.315901976198322 5.4862e-06 deg
node 34.71336607953855 4.9859e-05 deg
peri 82.58342939200507 7.338e-05 deg
M 31.02171196861198 4.8932e-05 deg
tp 2457497.068432772960
(2016-Apr-18.56843277)
0.00016342 JED
period 1200.300107209083
3.29
1.0953e-05
2.999e-08
d
yr
n .2999249919564413 2.7368e-09 deg/d
Q 2.354500414207006 1.4323e-08 au
  Orbit Determination Parameters
   # obs. used (total)      842  
   data-arc span      12166 days (33.31 yr)  
   first obs. used      1982-11-09  
   last obs. used      2016-03-01  
   planetary ephem.      DE431  
   SB-pert. ephem.      SB431-BIG16  
   condition code      0  
   fit RMS      .54756  
   data source      ORB  
   producer      Otto Matic  
   solution date      2016-Mar-24 16:56:07  

Additional Information
 Earth MOID = 1.09217 au 
 Jupiter MOID = 2.69079 au 
 T_jup = 3.647 
[ show covariance matrix ]

Ephemeris | Orbit Diagram | Orbital Elements | Physical Parameters | Discovery Circumstances | Close-Approach Data ]

Physical Parameter Table
Parameter Symbol Value Units Sigma Reference Notes
absolute magnitude H 15.1 mag n/a MPO347728  

27512 Gilstrap           Discovered 2000 Apr. 4 by the Lincoln Laboratory Near-Earth Asteroid Research Team at Socorro.
Lisa Gilstrap mentored a finalist in the 2011 Broadcom MASTERS, a math and science competition for middle-school students. She teaches at the Schimelpfenig Middle School, Plano, Texas.
NOTE: some special characters may not display properly (any characters within {} are an attempt to place the proper accent above a character)
Reference: 20111210/MPCPages.arcLast Updated: 2011-12-12

[ show close-approach data ]
Alternate Designations
 2000 GC167 = 1982 VU7 
Ephemeris | Orbit Diagram | Orbital Elements | Physical Parameters | Discovery Circumstances | Close-Approach Data ]
ABOUT SSD CREDITS/AWARDS PRIVACY/COPYRIGHT GLOSSARY LINKS
FirstGov 2016-May-02 19:23 UT
(server date/time)  
NASA Home Page
Site Manager:   Ryan S. Park
Webmaster  Alan B. Chamberlin